This is the latest recevied weather packets stored in our database for station/object OE3TEC-15. If no packets are shown the sender has not sent any weather packets the latest 10 day(s).
| Time | Temp. | Humidity | Pressure | Rain* | Wind** | Luminosity | Snow |
|---|---|---|---|---|---|---|---|
| 1777450807 | 12.78° C | 32% | 1025.7 hPa | 0 mm | - | 529 W/m² | - |
| 1777450199 | 12.78° C | 32% | 1025.7 hPa | 0 mm | - | 510 W/m² | - |
| 1777449598 | 12.78° C | 32% | 1025.7 hPa | 0 mm | - | 489 W/m² | - |
| 1777448993 | 12.22° C | 33% | 1025.6 hPa | 0 mm | - | 468 W/m² | - |
| 1777448386 | 11.11° C | 35% | 1025.7 hPa | 0 mm | - | 444 W/m² | - |
| 1777447779 | 11.11° C | 36% | 1025.5 hPa | 0 mm | - | 418 W/m² | - |
| 1777447171 | 11.11° C | 37% | 1025.6 hPa | 0 mm | - | 395 W/m² | - |
| 1777446563 | 10.56° C | 38% | 1025.5 hPa | 0 mm | - | 371 W/m² | - |
| 1777445957 | 10° C | 39% | 1025.4 hPa | 0 mm | - | 343 W/m² | - |
| 1777445351 | 9.44° C | 39% | 1025.5 hPa | 0 mm | - | 322 W/m² | - |
| 1777444743 | 9.44° C | 40% | 1025.4 hPa | 0 mm | - | 296 W/m² | - |
| 1777444136 | 8.89° C | 40% | 1025.4 hPa | 0 mm | - | 264 W/m² | - |
| 1777443529 | 8.33° C | 42% | 1025.5 hPa | 0 mm | - | 237 W/m² | - |
| 1777442920 | 7.78° C | 42% | 1025.5 hPa | 0 mm | - | 211 W/m² | - |
| 1777442314 | 7.78° C | 43% | 1025.6 hPa | 0 mm | - | 187 W/m² | - |
| 1777441707 | 7.22° C | 44% | 1025.5 hPa | 0 mm | - | 164 W/m² | - |
| 1777441099 | 6.67° C | 44% | 1025.3 hPa | 0 mm | - | 143 W/m² | - |
| 1777440492 | 6.67° C | 45% | 1025.3 hPa | 0 mm | - | 122 W/m² | - |
| 1777439885 | 6.67° C | 45% | 1025.4 hPa | 0 mm | - | 105 W/m² | - |
| 1777439279 | 6.11° C | 46% | 1025.3 hPa | 0 mm | - | 101 W/m² | - |
| 1777438671 | 6.11° C | 47% | 1025.1 hPa | 0 mm | - | 88 W/m² | - |
| 1777438064 | 4.44° C | 52% | 1025.2 hPa | 0 mm | - | 64 W/m² | - |
| 1777437457 | 3.89° C | 54% | 1025.1 hPa | 0 mm | - | 42 W/m² | - |
| 1777436849 | 2.78° C | 56% | 1025 hPa | 0 mm | - | 29 W/m² | - |
| 1777436242 | 2.78° C | 57% | 1024.8 hPa | 0 mm | - | 19 W/m² | - |
* Rain latest hour (hover to see other rain measurements)
** Current wind speed in m/s (hover to see current wind gust speed)